Location: Potomac
(46.8816°N, 113.5795°W)
Time: 22:33:26
(UTC+00:00)

UKube-1 - Pass Details

Date: 27 June 2022
Orbit: 608 x 615 km, 98.4° (Epoch: 07 August)

Event Time Altitude Azimuth Distance (km) Brightness Sun altitude
Rises 06:34:44 0° 4° (N) 2,898 ? -18.4°
Reaches altitude 10° 06:37:11 10° 352° (N) 1,986 ? -18.5°
Maximum altitude 06:40:47 27° 295° (WNW) 1,202 ? -18.6°
Drops below altitude 10° 06:44:22 10° 238° (WSW) 1,970 ? -18.8°
Enters shadow 06:44:36 - 236° (WSW) 2,052 ? -18.8°
